Nashville, TN

12:48 PM CDT on May 22, 2017 (GMT -0500)
Nashville International

Weather History for KBNA - March, 2014

Change the Weather History Date:

Sunday, March 23, 2014

  Actual Average Record
Temperature  
Mean Temperature 45 °F 52 °F  
Max Temperature 54 °F 63 °F 87 °F (1935)
Min Temperature 35 °F 41 °F 16 °F (1968)
Degree Days  
Heating Degree Days 20    
Month to date heating degree days 410  
Since 1 July heating degree days 3595  
Cooling Degree Days 0    
Month to date cooling degree days 0  
Year to date cooling degree days 0  
Moisture  
Dew Point 30 °F    
Average Humidity 59    
Maximum Humidity 82    
Minimum Humidity 35    
Precipitation  
Precipitation 0.18 in 0.14 in 1.37 in (1954)
Month to date precipitation 3.32 3.03  
Year to date precipitation 11.02 10.72  
Snow  
Snow 0.00 in - 0.30 in (1968)
Month to date snowfall 0.1  
Since 1 July snowfall 1.5  
Snow Depth 0.00 in    
Sea Level Pressure  
Sea Level Pressure 30.22 in    
Wind  
Wind Speed 12 mph (North)    
Max Wind Speed 23 mph    
Max Gust Speed 30 mph    
Visibility 10 miles    
Events Rain    
T = Trace of Precipitation, MM = Missing Value Source: NWS Daily Summary

Daily Weather History Graph

Daily Weather History Graph

Search for Another Location

Airport or City:

Trip Planner

Search our weather history database for the weather conditions in past years. The results will help you decide how hot, cold, wet, or windy it might be!

Date:

Astronomy

Mar. 23, 2014 Rise Set
Actual Time 6:45 AM CDT 7:01 PM CDT
Civil Twilight 6:20 AM CDT 7:26 PM CDT
Nautical Twilight 5:50 AM CDT 7:56 PM CDT
Astronomical Twilight 5:19 AM CDT 8:27 PM CDT
Moon 1:08 AM CDT (3/23) 11:35 AM CDT (3/23)
Length of Visible Light 13h 06m
Length of Day
12h 15m
Waning Gibbous, 54% of the Moon is Illuminated
Mar 23
Waning Gibbous
Mar 23
Last Quarter
Mar 30
New
Apr 7
First Quarter
Apr 15
Full

Hourly Weather History & Observations

Time (CDT) Temp. Windchill Dew Point Humidity Pressure Visibility Wind Dir Wind Speed Gust Speed Precip Events Conditions
12:53 AM 48.9 °F - 30.9 °F 50% 30.11 in 10.0 mi North 12.7 mph - N/A   Overcast
1:53 AM 45.0 °F 39.7 °F 37.0 °F 74% 30.17 in 5.0 mi NNW 10.4 mph - 0.07 in Rain Rain
2:53 AM 43.0 °F 37.7 °F 37.9 °F 82% 30.12 in 7.0 mi NNE 9.2 mph - 0.08 in Rain Rain
3:53 AM 42.1 °F 37.1 °F 37.9 °F 85% 30.14 in 9.0 mi North 8.1 mph - 0.01 in Rain Light Rain
4:53 AM 42.1 °F 37.1 °F 37.9 °F 85% 30.14 in 9.0 mi NNE 8.1 mph - 0.02 in   Overcast
5:53 AM 41.0 °F 33.9 °F 36.0 °F 82% 30.17 in 9.0 mi North 12.7 mph - 0.00 in Rain Light Rain
6:53 AM 41.0 °F 35.2 °F 36.0 °F 82% 30.20 in 9.0 mi North 9.2 mph - 0.00 in   Overcast
7:53 AM 42.1 °F 34.9 °F 34.0 °F 73% 30.21 in 10.0 mi NNE 13.8 mph - N/A   Mostly Cloudy
8:53 AM 44.1 °F 37.1 °F 33.1 °F 65% 30.23 in 10.0 mi North 15.0 mph - N/A   Mostly Cloudy
9:53 AM 46.0 °F 39.3 °F 33.1 °F 61% 30.24 in 10.0 mi North 16.1 mph 21.9 mph N/A   Scattered Clouds
10:53 AM 48.9 °F - 34.0 °F 56% 30.26 in 10.0 mi NNW 13.8 mph - N/A   Mostly Cloudy
11:53 AM 48.9 °F - 30.9 °F 50% 30.25 in 10.0 mi North 11.5 mph 20.7 mph N/A   Mostly Cloudy
12:53 PM 52.0 °F - 30.0 °F 43% 30.24 in 10.0 mi NW 15.0 mph 23.0 mph N/A   Mostly Cloudy
1:53 PM 54.0 °F - 30.0 °F 40% 30.23 in 10.0 mi NNW 15.0 mph 21.9 mph N/A   Mostly Cloudy
2:53 PM 54.0 °F - 30.0 °F 40% 30.22 in 10.0 mi North 15.0 mph 21.9 mph N/A   Scattered Clouds
3:53 PM 53.1 °F - 26.1 °F 35% 30.22 in 10.0 mi North 18.4 mph 23.0 mph N/A   Scattered Clouds
4:53 PM 52.0 °F - 25.0 °F 35% 30.22 in 10.0 mi North 17.3 mph 23.0 mph N/A   Partly Cloudy
5:53 PM 50.0 °F - 24.1 °F 36% 30.23 in 10.0 mi NNW 13.8 mph 20.7 mph N/A   Clear
6:53 PM 46.0 °F 39.9 °F 25.0 °F 44% 30.25 in 10.0 mi NNW 13.8 mph - N/A   Clear
7:53 PM 44.1 °F 38.1 °F 24.1 °F 45% 30.26 in 10.0 mi North 11.5 mph 20.7 mph N/A   Clear
8:53 PM 42.1 °F 35.7 °F 23.0 °F 47% 30.29 in 10.0 mi North 11.5 mph - N/A   Clear
9:53 PM 39.9 °F 33.4 °F 21.9 °F 49% 30.31 in 10.0 mi North 10.4 mph - N/A   Clear
10:53 PM 37.9 °F 30.9 °F 21.9 °F 53% 30.31 in 10.0 mi North 10.4 mph 17.3 mph N/A   Clear
11:53 PM 36.0 °F 29.6 °F 21.0 °F 55% 30.31 in 10.0 mi North 8.1 mph - N/A   Clear